Location: Ca�n Batista
(41.4099°N, 1.7752°E)
Time: 14:29:24
(UTC+00:00)

Cosmos 44 Rocket - Pass Details

Date: 03 March 2021
Orbit: 636 x 754 km, 65.1° (Epoch: 21 April)

Event Time Altitude Azimuth Distance (km) Brightness Sun altitude
Rises 18:20:46 0° 330° (NNW) 3,209 7.1 -7.3°
Reaches altitude 10° 18:23:13 10° 335° (NNW) 2,284 6.3 -7.8°
Maximum altitude 18:28:23 57° 54° (NE) 885 3.6 -8.7°
Drops below altitude 10° 18:33:29 10° 133° (SE) 2,252 5.5 -9.7°
Enters shadow 18:35:27 - 137° (SE) 2,997 6.2 -10.1°
